Overview Statistics Trail Chart Weather Telemetry Raw packets
 

This is the latest recevied weather packets stored in our database for station/object K5IDL. If no packets are shown the sender has not sent any weather packets the latest 10 day(s).

<< 9 10 11 12 13 14 15 >>
Time Temp. Humidity Pressure Rain* Wind** Luminosity Snow
1788646014 37.22° C 40% 1011.9 hPa 0 mm - 81 W/m² -
1788645709 36.67° C 42% 1012.1 hPa 0 mm - 32 W/m² -
1788645408 36.67° C 41% 1012 hPa 0 mm - 29 W/m² -
1788645104 36.67° C 40% 1012 hPa 0 mm - 112 W/m² -
1788644801 36.67° C 41% 1012 hPa 0 mm - 27 W/m² -
1788644501 36.67° C 41% 1012.1 hPa 0 mm - 36 W/m² -
1788644196 36.67° C 41% 1012.3 hPa 0 mm - 146 W/m² -
1788643891 36.67° C 41% 1012.4 hPa 0 mm - 30 W/m² -
1788643587 36.67° C 42% 1012.1 hPa 0 mm - 48 W/m² -
1788643286 36.67° C 42% 1012.4 hPa 0 mm - 32 W/m² -
1788642981 37.22° C 41% 1012.3 hPa 0 mm - 32 W/m² -
1788642677 36.67° C 42% 1012.5 hPa 0 mm - 44 W/m² -
1788642374 37.22° C 41% 1012.6 hPa 0 mm - 44 W/m² -
1788642068 37.22° C 42% 1012.5 hPa 0 mm - 33 W/m² -
1788641767 36.67° C 41% 1012.5 hPa 0 mm - 36 W/m² -
1788641466 36.67° C 42% 1012.8 hPa 0 mm - 68 W/m² -
1788641161 36.11° C 43% 1012.8 hPa 0 mm - 76 W/m² -
1788640856 35.56° C 44% 1013 hPa 0 mm - 234 W/m² -
1788640556 36.67° C 43% 1013 hPa 0 mm - 453 W/m² -
1788640251 37.22° C 42% 1013.1 hPa 0 mm - 49 W/m² -
1788639946 36.67° C 43% 1013.2 hPa 0 mm - 40 W/m² -
1788639642 36.67° C 42% 1013.2 hPa 0 mm - 44 W/m² -
1788639337 37.22° C 41% 1013.3 hPa 0 mm - 53 W/m² -
1788639037 37.78° C 42% 1013.7 hPa 0 mm - 103 W/m² -
1788638733 37.22° C 43% 1013.6 hPa 0 mm - 58 W/m² -

* Rain latest hour (hover to see other rain measurements)
** Current wind speed in m/s (hover to see current wind gust speed)